Torna al catalogo

STARLINK-31648

AttivoComunicazioniVLEO
NORAD 59266·PAYLOAD·🇺🇸 United States

Lanciato Mar 19, 2024 da Vandenberg Space Force Base

Loading…

Prossimi Passaggi (prossime 24 ore)

TLE

AggiornatoSource: CelesTrak SupGP

Epoca: Sep 15, 2026, 02:18 UTC

1 59266C 24050N   26258.09631944  .00022644  00000+0  66903-3 0  2580
2 59266  53.1615  20.6574 0001154  80.0231 347.9804 15.34379387    16

Traccia STARLINK-31648 in tempo reale con AllMySat

Download on the App Store